Location: Flotzheim
(48.8375°N, 10.8136°E)
Time: 17:09:47
(UTC+00:00)

Meteor 1-24 Rocket - Pass Details

Date: 23 January 2021
Orbit: 791 x 927 km, 81.3° (Epoch: 01 March)

Event Time Altitude Azimuth Distance (km) Brightness Sun altitude
Rises 17:11:47 0° 204° (SSW) 3,302 7.4 -11.7°
Reaches altitude 10° 17:14:14 10° 209° (SSW) 2,366 6.7 -12.1°
Maximum altitude 17:19:25 53° 286° (WNW) 971 4.4 -12.9°
Drops below altitude 10° 17:24:37 10° 4° (N) 2,371 5.9 -13.7°
Sets 17:27:05 0° 9° (N) 3,311 6.6 -14.1°
